Zurück zum Katalog

OPS 4682 DEB

AktivPO
NORAD 38380·DEBRIS·🇺🇸 United States

Gestartet Apr 3, 1965 von Vandenberg Space Force Base

Loading…

Nächste Überflüge (nächste 24 Stunden)

TLE

AktuellSource: Space-Track

Epoche: Sep 14, 2026, 03:42 UTC

1 38380U 65027CH  26257.15450441 -.00000244  00000-0 -83793-3 0  9993
2 38380  90.2591 323.3660 0021989  96.8549 263.5076 12.99913836589173

Verfolge OPS 4682 DEB in Echtzeit mit AllMySat

Download on the App Store